Starlink 1568

operational
NORAD ID: 46080 Int'l Des: 2020-055 Owner: SPXS Country: US Constellation: starlink
LEOCIRCULAR

关于 Starlink 1568

正在加载描述...

实时位置

正在加载3D地球...

即将过境

高度历史

Altitude vs Time

uPlot chart will show altitude changes over time

两行轨道根数

1 46080U 20055BF 25259.03601051 .00044775 00000-0 15868-2 0 9996
2 46080 53.0663 135.9767 0002549 88.4163 271.7128 15.28683238283312
Epoch: Sep 16, 2025 • Age: 10 hours

当前状态

高度 495.1 km
速度 7.62 km/s
星下点 -41.99°S, 169.05°W
发射日期 Aug 7, 2020
运行时间 5.1 years
类型 internet

技术详情

分类 Payload
质量 260.00 kg
干质量 248.00 kg
总质量 260.00 kg
长度 0.20 m
直径 2.80 m
跨度 9.00 m
形状 Box + pan
制造商 SPXS
平台类型 Starlink
阶段状态 In Orbit
所有者/国家 SPXS/US

大型星座

Loading constellations...